Location: Buckeye Ditch
(40.9104°N, 122.9517°W)
Time: 18:28:39
(UTC+00:00)

SR - Pass Details

Date: 22 May 2025
Orbit: 570 x 855 km, 66.7° (Epoch: 13 June)

Event Time Altitude Azimuth Distance (km) Brightness Sun altitude
Rises 16:32:37 0° 331° (NNW) 3,289 ? 40.2°
Reaches altitude 10° 16:35:08 10° 333° (NNW) 2,315 ? 40.7°
Maximum altitude 16:40:25 75° 59° (ENE) 751 ? 41.7°
Drops below altitude 10° 16:45:14 10° 145° (SE) 2,109 ? 42.6°
Sets 16:47:26 0° 147° (SSE) 2,975 ? 43.0°
